• In Hungary
  • List of Countries
  • For 7 days
  • Water Temperature
  • Satellite Maps
  • Weather Map
  • News
  • Weather Widgets
  • user-avatar
    Login

    Hourly Weather Osetin

    Today, 18 August, Saturday

    Time Temperature Precipitation Wind Pressure Humidity
    00:00 +21°C° 0.2 mm 4 mps 737 mmHg 72%
    01:00 +21°C° 0.2 mm 4 mps 736 mmHg 77%
    02:00 +20°C° 0.1 mm 5 mps 736 mmHg 79%
    03:00 +19°C° 0.1 mm 5 mps 736 mmHg 81%
    04:00 +17°C° 0 mm 5 mps 736 mmHg 82%
    05:00 +17°C° 0.6 mm 5 mps 736 mmHg 81%
    06:00 +17°C° 0.6 mm 5 mps 737 mmHg 81%
    07:00 +16°C° 0.6 mm 5 mps 737 mmHg 80%
    08:00 +17°C° 0.5 mm 5 mps 737 mmHg 76%
    09:00 +19°C° 0.5 mm 6 mps 737 mmHg 72%
    10:00 +21°C° 0 mm 5 mps 737 mmHg 66%
    11:00 +21°C° 0.4 mm 6 mps 737 mmHg 66%
    12:00 +21°C° 0.4 mm 6 mps 737 mmHg 66%
    13:00 +21°C° 0.4 mm 7 mps 737 mmHg 67%
    14:00 +20°C° 0.4 mm 7 mps 737 mmHg 68%
    15:00 +20°C° 0.4 mm 7 mps 737 mmHg 70%
    16:00 +18°C° 0.4 mm 7 mps 737 mmHg 71%
    17:00 +17°C° 0.6 mm 7 mps 737 mmHg 74%
    18:00 +16°C° 0.6 mm 7 mps 737 mmHg 76%
    19:00 +15°C° 0.6 mm 7 mps 737 mmHg 78%
    20:00 +15°C° 0 mm 7 mps 737 mmHg 78%
    21:00 +14°C° 0 mm 7 mps 737 mmHg 78%
    22:00 +14°C° 0 mm 6 mps 738 mmHg 78%
    23:00 +14°C° 0 mm 6 mps 738 mmHg 78%

    Tomorrow, 19 August, Sunday

    Time Temperature Precipitation Wind Pressure Humidity
    00:00 +13°C° 0 mm 6 mps 738 mmHg 78%
    01:00 +13°C° 0 mm 6 mps 738 mmHg 78%
    02:00 +13°C° 0 mm 6 mps 738 mmHg 80%
    03:00 +11°C° 0 mm 6 mps 738 mmHg 81%
    04:00 +11°C° 0 mm 6 mps 738 mmHg 82%
    05:00 +11°C° 0 mm 7 mps 738 mmHg 78%
    06:00 +12°C° 0 mm 7 mps 738 mmHg 75%
    07:00 +12°C° 0 mm 8 mps 738 mmHg 71%
    08:00 +13°C° 0 mm 8 mps 738 mmHg 67%
    09:00 +15°C° 0 mm 8 mps 738 mmHg 63%
    10:00 +16°C° 0 mm 8 mps 738 mmHg 59%
    11:00 +16°C° 0 mm 9 mps 738 mmHg 59%
    12:00 +16°C° 0 mm 9 mps 738 mmHg 58%
    13:00 +16°C° 0 mm 9 mps 738 mmHg 58%
    14:00 +17°C° 0 mm 8 mps 738 mmHg 57%
    15:00 +17°C° 0 mm 8 mps 738 mmHg 55%
    16:00 +17°C° 0 mm 8 mps 738 mmHg 54%
    17:00 +17°C° 0 mm 7 mps 738 mmHg 56%
    18:00 +16°C° 0 mm 6 mps 738 mmHg 59%
    19:00 +15°C° 0 mm 5 mps 738 mmHg 62%
    20:00 +15°C° 0 mm 5 mps 738 mmHg 65%
    21:00 +14°C° 0 mm 5 mps 738 mmHg 68%
    22:00 +13°C° 0 mm 5 mps 738 mmHg 71%
    23:00 +13°C° 0 mm 5 mps 738 mmHg 73%

    Day after tomorrow, 20 August, Monday

    Time Temperature Precipitation Wind Pressure Humidity
    00:00 +12°C° 0 mm 5 mps 738 mmHg 75%
    01:00 +11°C° 0 mm 6 mps 738 mmHg 77%
    02:00 +10°C° 0 mm 6 mps 738 mmHg 78%
    03:00 +10°C° 0 mm 5 mps 738 mmHg 80%
    04:00 +9°C° 0 mm 5 mps 738 mmHg 82%
    05:00 +10°C° 0 mm 6 mps 738 mmHg 80%
    06:00 +10°C° 0 mm 6 mps 738 mmHg 78%
    07:00 +10°C° 0 mm 7 mps 738 mmHg 75%
    08:00 +12°C° 0 mm 7 mps 739 mmHg 69%
    09:00 +14°C° 0 mm 7 mps 739 mmHg 62%
    10:00 +16°C° 0 mm 6 mps 739 mmHg 55%
    11:00 +16°C° 0 mm 6 mps 738 mmHg 51%
    12:00 +17°C° 0 mm 6 mps 738 mmHg 47%
    13:00 +19°C° 0 mm 6 mps 738 mmHg 43%
    14:00 +19°C° 0 mm 6 mps 738 mmHg 43%
    15:00 +19°C° 0 mm 6 mps 738 mmHg 42%
    16:00 +19°C° 0 mm 6 mps 738 mmHg 42%
    17:00 +17°C° 0 mm 5 mps 738 mmHg 46%
    18:00 +17°C° 0 mm 4 mps 738 mmHg 49%
    19:00 +17°C° 0 mm 3 mps 739 mmHg 52%
    20:00 +16°C° 0 mm 3 mps 739 mmHg 55%
    21:00 +14°C° 0 mm 3 mps 739 mmHg 57%
    22:00 +14°C° 0 mm 2 mps 739 mmHg 60%
    23:00 +14°C° 0 mm 2 mps 739 mmHg 61%

    21 August, Tuesday

    Time Temperature Precipitation Wind Pressure Humidity
    00:00 +14°C° 0 mm 2 mps 739 mmHg 62%
    01:00 +13°C° 0 mm 2 mps 739 mmHg 63%
    02:00 +13°C° 0 mm 2 mps 740 mmHg 64%
    03:00 +13°C° 0 mm 2 mps 740 mmHg 66%
    04:00 +13°C° 0 mm 2 mps 740 mmHg 67%
    05:00 +13°C° 0 mm 2 mps 740 mmHg 66%
    06:00 +13°C° 0 mm 3 mps 740 mmHg 65%
    07:00 +14°C° 0 mm 3 mps 741 mmHg 64%
    08:00 +15°C° 0 mm 4 mps 741 mmHg 58%
    09:00 +18°C° 0 mm 4 mps 741 mmHg 52%
    10:00 +20°C° 0 mm 5 mps 741 mmHg 46%
    11:00 +21°C° 0 mm 5 mps 741 mmHg 45%
    12:00 +22°C° 0 mm 5 mps 740 mmHg 43%
    13:00 +24°C° 0 mm 6 mps 740 mmHg 41%
    14:00 +24°C° 0 mm 6 mps 740 mmHg 42%
    15:00 +24°C° 0 mm 6 mps 740 mmHg 44%
    16:00 +24°C° 0 mm 6 mps 740 mmHg 45%
    17:00 +23°C° 0 mm 5 mps 740 mmHg 49%
    18:00 +23°C° 0 mm 5 mps 739 mmHg 52%
    19:00 +22°C° 0 mm 4 mps 739 mmHg 56%
    20:00 +21°C° 0 mm 4 mps 740 mmHg 58%
    21:00 +20°C° 0 mm 4 mps 740 mmHg 59%
    22:00 +20°C° 0 mm 3 mps 740 mmHg 61%
    23:00 +19°C° 0 mm 3 mps 740 mmHg 62%

    22 August, Wednesday

    Time Temperature Precipitation Wind Pressure Humidity
    00:00 +19°C° 0 mm 3 mps 739 mmHg 62%
    01:00 +18°C° 0 mm 3 mps 739 mmHg 63%
    02:00 +18°C° 0 mm 3 mps 739 mmHg 63%
    03:00 +18°C° 0 mm 3 mps 739 mmHg 63%
    04:00 +17°C° 0 mm 3 mps 739 mmHg 63%
    05:00 +18°C° 0 mm 4 mps 739 mmHg 61%
    06:00 +19°C° 0 mm 4 mps 739 mmHg 58%
    07:00 +20°C° 0 mm 4 mps 739 mmHg 56%
    08:00 +21°C° 0 mm 5 mps 739 mmHg 50%
    09:00 +23°C° 0 mm 5 mps 739 mmHg 44%
    10:00 +26°C° 0 mm 6 mps 739 mmHg 38%
    11:00 +27°C° 0 mm 6 mps 739 mmHg 35%
    12:00 +28°C° 0 mm 6 mps 738 mmHg 33%
    13:00 +29°C° 0 mm 7 mps 738 mmHg 31%
    14:00 +29°C° 0 mm 7 mps 738 mmHg 30%
    15:00 +29°C° 0 mm 7 mps 737 mmHg 29%
    16:00 +29°C° 0 mm 7 mps 737 mmHg 28%
    17:00 +28°C° 0 mm 5 mps 737 mmHg 31%
    18:00 +26°C° 0 mm 4 mps 737 mmHg 34%
    19:00 +25°C° 0 mm 3 mps 737 mmHg 38%
    20:00 +24°C° 0 mm 3 mps 737 mmHg 38%
    21:00 +22°C° 0 mm 3 mps 736 mmHg 39%
    22:00 +22°C° 0 mm 3 mps 736 mmHg 39%
    23:00 +21°C° 0 mm 3 mps 736 mmHg 40%

    23 August, Thursday

    Time Temperature Precipitation Wind Pressure Humidity
    00:00 +21°C° 0 mm 3 mps 736 mmHg 40%
    01:00 +20°C° 0 mm 4 mps 735 mmHg 40%
    02:00 +20°C° 0 mm 4 mps 735 mmHg 40%
    03:00 +20°C° 0 mm 4 mps 735 mmHg 41%
    04:00 +19°C° 0 mm 4 mps 735 mmHg 41%
    05:00 +19°C° 0 mm 5 mps 735 mmHg 44%
    06:00 +19°C° 0 mm 5 mps 735 mmHg 48%
    07:00 +20°C° 0 mm 6 mps 735 mmHg 52%
    08:00 +20°C° 0.3 mm 6 mps 735 mmHg 57%
    09:00 +20°C° 0.3 mm 7 mps 735 mmHg 61%
    10:00 +20°C° 0.3 mm 7 mps 735 mmHg 66%
    11:00 +20°C° 0.1 mm 7 mps 736 mmHg 58%
    12:00 +21°C° 0.1 mm 8 mps 736 mmHg 50%
    13:00 +22°C° 0.1 mm 8 mps 736 mmHg 42%
    14:00 +22°C° 0 mm 8 mps 736 mmHg 42%
    15:00 +21°C° 0 mm 8 mps 737 mmHg 42%
    16:00 +21°C° 0 mm 8 mps 737 mmHg 41%
    17:00 +18°C° 0 mm 7 mps 737 mmHg 44%
    18:00 +17°C° 0 mm 7 mps 738 mmHg 47%
    19:00 +15°C° 0 mm 6 mps 738 mmHg 50%
    20:00 +15°C° 0 mm 5 mps 739 mmHg 52%
    21:00 +14°C° 0 mm 4 mps 739 mmHg 54%
    22:00 +13°C° 0 mm 3 mps 739 mmHg 57%
    23:00 +13°C° 0 mm 4 mps 739 mmHg 59%
    Show more